| time (UTC) | temp F | wind direction | speed MPH | gust MPH | rain 1hr in | rain 24hr in | rain mn in | humidity % | barometer mb |
| 20260903230759 | 83 | 152 | 3.0 | 9.0 | 0.00 | 0.00 | 0.00 | 50 | 1015.2 |
| 20260903230257 | 83 | 82 | 2.0 | 9.0 | 0.00 | 0.00 | 0.00 | 54 | 1015.2 |
| 20260903225758 | 83 | 124 | 2.0 | 6.0 | 0.00 | 0.00 | 0.00 | 53 | 1015.3 |
| 20260903225258 | 83 | 140 | 3.0 | 6.0 | 0.00 | 0.00 | 0.00 | 52 | 1015.4 |
| 20260903224758 | 83 | 149 | 2.0 | 7.0 | 0.00 | 0.00 | 0.00 | 50 | 1015.5 |
| 20260903224258 | 83 | 137 | 2.0 | 7.0 | 0.00 | 0.00 | 0.00 | 50 | 1015.5 |
| 20260903223757 | 84 | 145 | 2.0 | 6.0 | 0.00 | 0.00 | 0.00 | 50 | 1015.5 |
| 20260903223257 | 84 | 138 | 3.0 | 7.0 | 0.00 | 0.00 | 0.00 | 49 | 1015.5 |
| 20260903222757 | 83 | 130 | 2.0 | 7.0 | 0.00 | 0.00 | 0.00 | 49 | 1015.5 |
| 20260903222257 | 83 | 125 | 2.0 | 7.0 | 0.00 | 0.00 | 0.00 | 50 | 1015.6 |
| 20260903221757 | 83 | 113 | 2.0 | 6.0 | 0.00 | 0.00 | 0.00 | 50 | 1015.7 |
| 20260903221258 | 83 | 121 | 3.0 | 5.0 | 0.00 | 0.00 | 0.00 | 51 | 1015.7 |
| 20260903221249 | 83 | 125 | 3.0 | 6.0 | 0.00 | 0.00 | 0.00 | 50 | 1015.7 |
| 20260903220257 | 83 | 127 | 3.0 | 6.0 | 0.00 | 0.00 | 0.00 | 50 | 1015.8 |
| 20260903215756 | 83 | 96 | 3.0 | 7.0 | 0.00 | 0.00 | 0.00 | 49 | 1015.8 |
| 20260903215257 | 83 | 134 | 4.0 | 7.0 | 0.00 | 0.00 | 0.00 | 47 | 1015.9 |
| 20260903214755 | 83 | 148 | 4.0 | 7.0 | 0.00 | 0.00 | 0.00 | 50 | 1015.9 |
| 20260903214257 | 83 | 111 | 4.0 | 7.0 | 0.00 | 0.00 | 0.00 | 49 | 1016.0 |
| 20260903213756 | 83 | 134 | 4.0 | 7.0 | 0.00 | 0.00 | 0.00 | 49 | 1016.0 |
| 20260903213514 | 83 | 125 | 4.0 | 7.0 | 0.00 | 0.00 | 0.00 | 51 | 1015.9 |
| 20260903212756 | 83 | 109 | 4.0 | 7.0 | 0.00 | 0.00 | 0.00 | 50 | 1016.0 |
| 20260903212257 | 83 | 133 | 3.0 | 7.0 | 0.00 | 0.00 | 0.00 | 48 | 1016.0 |
| 20260903212019 | 83 | 123 | 3.0 | 7.0 | 0.00 | 0.00 | 0.00 | 50 | 1016.0 |
| 20260903211255 | 83 | 127 | 3.0 | 6.0 | 0.00 | 0.00 | 0.00 | 49 | 1016.0 |
| 20260903210755 | 83 | 124 | 3.0 | 7.0 | 0.00 | 0.00 | 0.00 | 49 | 1016.0 |
| 20260903210255 | 83 | 145 | 3.0 | 7.0 | 0.00 | 0.00 | 0.00 | 50 | 1016.0 |
| 20260903205755 | 83 | 96 | 3.0 | 7.0 | 0.00 | 0.00 | 0.00 | 51 | 1016.1 |
| 20260903205518 | 82 | 131 | 3.0 | 9.0 | 0.00 | 0.00 | 0.00 | 52 | 1016.1 |
| 20260903204756 | 82 | 125 | 3.0 | 9.0 | 0.00 | 0.00 | 0.00 | 52 | 1016.1 |
| 20260903204511 | 82 | 140 | 4.0 | 9.0 | 0.00 | 0.00 | 0.00 | 51 | 1016.1 |
| 20260903203754 | 82 | 117 | 5.0 | 9.0 | 0.00 | 0.00 | 0.00 | 51 | 1016.1 |
| 20260903203254 | 82 | 116 | 3.0 | 6.0 | 0.00 | 0.00 | 0.00 | 51 | 1016.2 |
| 20260903202754 | 82 | 120 | 3.0 | 7.0 | 0.00 | 0.00 | 0.00 | 51 | 1016.2 |
| 20260903202255 | 82 | 125 | 4.0 | 7.0 | 0.00 | 0.00 | 0.00 | 53 | 1016.2 |
| 20260903201754 | 82 | 113 | 4.0 | 9.0 | 0.00 | 0.00 | 0.00 | 53 | 1016.3 |
| 20260903201254 | 82 | 111 | 3.0 | 9.0 | 0.00 | 0.00 | 0.00 | 53 | 1016.4 |
| 20260903200754 | 82 | 92 | 4.0 | 7.0 | 0.00 | 0.00 | 0.00 | 53 | 1016.4 |
| 20260903200254 | 82 | 133 | 4.0 | 7.0 | 0.00 | 0.00 | 0.00 | 53 | 1016.4 |
| 20260903195754 | 82 | 94 | 2.0 | 6.0 | 0.00 | 0.00 | 0.00 | 53 | 1016.5 |
| 20260903195255 | 82 | 145 | 3.0 | 7.0 | 0.00 | 0.00 | 0.00 | 55 | 1016.5 |
| 20260903194753 | 81 | 144 | 3.0 | 10.0 | 0.00 | 0.00 | 0.00 | 53 | 1016.7 |
| 20260903194514 | 81 | 78 | 4.0 | 10.0 | 0.00 | 0.00 | 0.00 | 54 | 1016.7 |
| 20260903193753 | 81 | 135 | 3.0 | 6.0 | 0.00 | 0.00 | 0.00 | 54 | 1016.7 |
| 20260903193513 | 81 | 123 | 2.0 | 9.0 | 0.00 | 0.00 | 0.00 | 55 | 1016.7 |
| 20260903192753 | 81 | 102 | 3.0 | 9.0 | 0.00 | 0.00 | 0.00 | 57 | 1016.7 |
| 20260903192520 | 80 | 114 | 3.0 | 9.0 | 0.00 | 0.00 | 0.00 | 57 | 1016.7 |
| 20260903191755 | 80 | 93 | 3.0 | 10.0 | 0.00 | 0.00 | 0.00 | 58 | 1016.7 |
| 20260903191254 | 79 | 121 | 4.0 | 10.0 | 0.00 | 0.00 | 0.00 | 58 | 1016.8 |
| 20260903190754 | 78 | 104 | 3.0 | 6.0 | 0.00 | 0.00 | 0.00 | 59 | 1016.8 |
| 20260903190253 | 78 | 100 | 3.0 | 6.0 | 0.00 | 0.00 | 0.00 | 61 | 1016.8 |
| 20260903185754 | 78 | 131 | 3.0 | 7.0 | 0.00 | 0.00 | 0.00 | 62 | 1017.0 |
| 20260903185253 | 78 | 96 | 4.0 | 7.0 | 0.00 | 0.00 | 0.00 | 63 | 1016.9 |
| 20260903184755 | 77 | 96 | 4.0 | 10.0 | 0.00 | 0.00 | 0.00 | 64 | 1017.0 |
| 20260903184253 | 77 | 100 | 5.0 | 11.0 | 0.00 | 0.00 | 0.00 | 64 | 1017.1 |
| 20260903184018 | 77 | 99 | 5.0 | 11.0 | 0.00 | 0.00 | 0.00 | 64 | 1017.1 |
| 20260903183252 | 77 | 93 | 6.0 | 11.0 | 0.00 | 0.00 | 0.00 | 64 | 1017.1 |
| 20260903182753 | 77 | 100 | 4.0 | 7.0 | 0.00 | 0.00 | 0.00 | 63 | 1017.1 |
| 20260903182252 | 77 | 106 | 4.0 | 10.0 | 0.00 | 0.00 | 0.00 | 64 | 1017.1 |
| 20260903181753 | 77 | 114 | 3.0 | 10.0 | 0.00 | 0.00 | 0.00 | 64 | 1017.1 |
| 20260903181522 | 78 | 97 | 4.0 | 9.0 | 0.00 | 0.00 | 0.00 | 63 | 1017.1 |
| 20260903180754 | 77 | 109 | 3.0 | 9.0 | 0.00 | 0.00 | 0.00 | 63 | 1017.0 |
| 20260903180252 | 77 | 135 | 3.0 | 9.0 | 0.00 | 0.00 | 0.00 | 63 | 1017.1 |
| 20260903175753 | 77 | 102 | 4.0 | 9.0 | 0.00 | 0.00 | 0.00 | 63 | 1017.1 |
| 20260903175252 | 77 | 120 | 3.0 | 9.0 | 0.00 | 0.00 | 0.00 | 63 | 1017.1 |
| 20260903174751 | 77 | 118 | 2.0 | 11.0 | 0.00 | 0.00 | 0.00 | 63 | 1017.0 |
| 20260903174516 | 77 | 86 | 4.0 | 11.0 | 0.00 | 0.00 | 0.00 | 62 | 1017.0 |
| 20260903173751 | 77 | 113 | 4.0 | 6.0 | 0.00 | 0.00 | 0.00 | 62 | 1017.0 |
| 20260903173513 | 77 | 111 | 2.0 | 6.0 | 0.00 | 0.00 | 0.00 | 62 | 1017.0 |
| 20260903172752 | 76 | 100 | 4.0 | 9.0 | 0.00 | 0.00 | 0.00 | 63 | 1017.0 |
| 20260903172510 | 76 | 103 | 3.0 | 11.0 | 0.00 | 0.00 | 0.00 | 64 | 1017.0 |
| 20260903171750 | 76 | 117 | 4.0 | 11.0 | 0.00 | 0.00 | 0.00 | 64 | 1016.9 |
| 20260903171512 | 77 | 92 | 6.0 | 10.0 | 0.00 | 0.00 | 0.00 | 63 | 1016.8 |
| 20260903170751 | 77 | 94 | 4.0 | 6.0 | 0.00 | 0.00 | 0.00 | 63 | 1016.8 |
| 20260903170250 | 76 | 96 | 2.0 | 6.0 | 0.00 | 0.00 | 0.00 | 63 | 1016.7 |
| 20260903165751 | 76 | 106 | 2.0 | 7.0 | 0.00 | 0.00 | 0.00 | 63 | 1016.8 |
| 20260903165250 | 76 | 99 | 3.0 | 7.0 | 0.00 | 0.00 | 0.00 | 62 | 1016.7 |
| 20260903164750 | 76 | 104 | 3.0 | 6.0 | 0.00 | 0.00 | 0.00 | 61 | 1016.7 |
| 20260903164250 | 75 | 99 | 3.0 | 6.0 | 0.00 | 0.00 | 0.00 | 61 | 1016.7 |
| 20260903164012 | 75 | 94 | 2.0 | 5.0 | 0.00 | 0.00 | 0.00 | 61 | 1016.7 |
| 20260903163251 | 75 | 94 | 2.0 | 4.0 | 0.00 | 0.00 | 0.00 | 61 | 1016.7 |
| 20260903162749 | 74 | 96 | 2.0 | 5.0 | 0.00 | 0.00 | 0.00 | 61 | 1016.7 |
| 20260903162248 | 74 | 96 | 3.0 | 5.0 | 0.00 | 0.00 | 0.00 | 61 | 1016.6 |
| 20260903162009 | 74 | 111 | 2.0 | 4.0 | 0.00 | 0.00 | 0.00 | 62 | 1016.7 |
| 20260903161510 | 73 | 109 | 2.0 | 4.0 | 0.00 | 0.00 | 0.00 | 63 | 1016.8 |
| 20260903160748 | 73 | 123 | 2.0 | 4.0 | 0.00 | 0.00 | 0.00 | 64 | 1016.8 |
| 20260903160248 | 72 | 106 | 2.0 | 5.0 | 0.00 | 0.00 | 0.00 | 64 | 1016.8 |
| 20260903155748 | 72 | 118 | 2.0 | 5.0 | 0.00 | 0.00 | 0.00 | 65 | 1016.8 |
| 20260903155248 | 71 | 107 | 2.0 | 4.0 | 0.00 | 0.00 | 0.00 | 66 | 1016.7 |
| 20260903154748 | 71 | 102 | 2.0 | 4.0 | 0.00 | 0.00 | 0.00 | 66 | 1016.7 |
| 20260903154506 | 70 | 99 | 2.0 | 4.0 | 0.00 | 0.00 | 0.00 | 67 | 1016.7 |
| 20260903153747 | 69 | 97 | 2.0 | 3.0 | 0.00 | 0.00 | 0.00 | 67 | 1016.7 |
| 20260903153250 | 69 | 68 | 1.0 | 3.0 | 0.00 | 0.00 | 0.00 | 68 | 1016.7 |
| 20260903152749 | 68 | 68 | 1.0 | 3.0 | 0.00 | 0.00 | 0.00 | 69 | 1016.8 |
| 20260903152250 | 68 | 68 | 0.0 | 3.0 | 0.00 | 0.00 | 0.00 | 69 | 1016.7 |
| 20260903151749 | 68 | 68 | 1.0 | 3.0 | 0.00 | 0.00 | 0.00 | 69 | 1016.7 |
| 20260903151513 | 68 | 68 | 1.0 | 5.0 | 0.00 | 0.00 | 0.00 | 69 | 1016.7 |
| 20260903150748 | 68 | 68 | 3.0 | 6.0 | 0.00 | 0.00 | 0.00 | 69 | 1016.7 |
| 20260903150249 | 68 | 59 | 3.0 | 6.0 | 0.00 | 0.00 | 0.00 | 69 | 1016.7 |
| 20260903145748 | 68 | 69 | 4.0 | 5.0 | 0.00 | 0.00 | 0.00 | 69 | 1016.6 |
| 20260903145249 | 68 | 72 | 4.0 | 5.0 | 0.00 | 0.00 | 0.00 | 69 | 1016.5 |
| 20260903144748 | 68 | 56 | 4.0 | 5.0 | 0.00 | 0.00 | 0.00 | 70 | 1016.4 |
| 20260903144248 | 67 | 62 | 4.0 | 5.0 | 0.00 | 0.00 | 0.00 | 70 | 1016.4 |
| 20260903143746 | 67 | 59 | 4.0 | 5.0 | 0.00 | 0.00 | 0.00 | 70 | 1016.2 |
| 20260903143247 | 67 | 75 | 3.0 | 5.0 | 0.00 | 0.00 | 0.00 | 70 | 1016.2 |
| 20260903143006 | 67 | 45 | 2.0 | 4.0 | 0.00 | 0.00 | 0.00 | 71 | 1016.2 |
| 20260903142504 | 66 | 45 | 3.0 | 4.0 | 0.00 | 0.00 | 0.00 | 72 | 1016.1 |
| 20260903141746 | 66 | 21 | 2.0 | 3.0 | 0.00 | 0.00 | 0.00 | 72 | 1016.0 |
| 20260903141247 | 65 | 320 | 2.0 | 3.0 | 0.00 | 0.00 | 0.00 | 72 | 1015.9 |
| 20260903140746 | 65 | 317 | 2.0 | 3.0 | 0.00 | 0.00 | 0.00 | 73 | 1015.9 |
| 20260903140247 | 65 | 314 | 2.0 | 3.0 | 0.00 | 0.00 | 0.00 | 74 | 1015.9 |
| 20260903135747 | 65 | 312 | 0.0 | 0.0 | 0.00 | 0.00 | 0.00 | 74 | 1015.8 |
| 20260903135247 | 65 | 309 | 0.0 | 0.0 | 0.00 | 0.00 | 0.00 | 75 | 1015.7 |
| 20260903134746 | 64 | 309 | 0.0 | 0.0 | 0.00 | 0.00 | 0.00 | 75 | 1015.7 |
| 20260903134246 | 64 | 309 | 0.0 | 0.0 | 0.00 | 0.00 | 0.00 | 75 | 1015.7 |
| 20260903133745 | 64 | 309 | 0.0 | 0.0 | 0.00 | 0.00 | 0.00 | 75 | 1015.6 |
| 20260903133245 | 64 | 309 | 0.0 | 0.0 | 0.00 | 0.00 | 0.00 | 76 | 1015.7 |
| 20260903132745 | 64 | 309 | 0.0 | 0.0 | 0.00 | 0.00 | 0.00 | 76 | 1015.7 |
| 20260903132245 | 64 | 309 | 0.0 | 0.0 | 0.00 | 0.00 | 0.00 | 76 | 1015.7 |
| 20260903131744 | 64 | 309 | 0.0 | 0.0 | 0.00 | 0.00 | 0.00 | 75 | 1015.8 |
| 20260903131244 | 64 | 309 | 0.0 | 0.0 | 0.00 | 0.00 | 0.00 | 75 | 1015.8 |
| 20260903130744 | 64 | 310 | 0.0 | 0.0 | 0.00 | 0.00 | 0.00 | 75 | 1015.7 |
| 20260903130244 | 64 | 310 | 0.0 | 0.0 | 0.00 | 0.00 | 0.00 | 75 | 1015.8 |
| 20260903125745 | 64 | 310 | 0.0 | 1.0 | 0.00 | 0.00 | 0.00 | 75 | 1015.8 |
| 20260903125244 | 64 | 309 | 0.0 | 3.0 | 0.00 | 0.00 | 0.00 | 75 | 1015.8 |
| 20260903124744 | 64 | 309 | 2.0 | 3.0 | 0.00 | 0.00 | 0.00 | 75 | 1015.8 |
| 20260903124244 | 64 | 312 | 0.0 | 4.0 | 0.00 | 0.00 | 0.00 | 75 | 1015.8 |
| 20260903123744 | 64 | 312 | 2.0 | 5.0 | 0.00 | 0.00 | 0.00 | 75 | 1015.8 |
| 20260903123244 | 64 | 312 | 4.0 | 6.0 | 0.00 | 0.00 | 0.00 | 76 | 1015.7 |
| 20260903123006 | 64 | 289 | 4.0 | 6.0 | 0.00 | 0.00 | 0.00 | 76 | 1015.7 |
| 20260903122504 | 64 | 282 | 4.0 | 6.0 | 0.00 | 0.00 | 0.00 | 76 | 1015.7 |
| 20260903121745 | 64 | 282 | 4.0 | 6.0 | 0.00 | 0.00 | 0.00 | 76 | 1015.8 |
| 20260903121242 | 64 | 286 | 5.0 | 6.0 | 0.00 | 0.00 | 0.00 | 76 | 1015.7 |
| 20260903120744 | 64 | 282 | 4.0 | 5.0 | 0.00 | 0.00 | 0.00 | 75 | 1015.8 |
| 20260903120243 | 64 | 288 | 4.0 | 5.0 | 0.00 | 0.00 | 0.00 | 75 | 1015.8 |
| 20260903115744 | 64 | 281 | 3.0 | 4.0 | 0.00 | 0.00 | 0.00 | 75 | 1015.8 |
| 20260903115457 | 64 | 283 | 4.0 | 4.0 | 0.00 | 0.00 | 0.00 | 75 | 1015.9 |
| 20260903115444 | 64 | 283 | 3.0 | 4.0 | 0.00 | 0.00 | 0.00 | 75 | 1015.9 |
| 20260903114244 | 65 | 165 | 0.0 | 0.0 | 0.00 | 0.00 | 0.00 | 76 | 1015.9 |
| 20260903113744 | 65 | 165 | 0.0 | 0.0 | 0.00 | 0.00 | 0.00 | 76 | 1015.9 |
| 20260903113459 | 65 | 165 | 0.0 | 0.0 | 0.00 | 0.00 | 0.00 | 76 | 1015.8 |
| 20260903112745 | 65 | 165 | 0.0 | 0.0 | 0.00 | 0.00 | 0.00 | 76 | 1015.9 |
| 20260903112243 | 65 | 165 | 0.0 | 0.0 | 0.00 | 0.00 | 0.00 | 76 | 1015.9 |
| 20260903111741 | 65 | 165 | 0.0 | 0.0 | 0.00 | 0.00 | 0.00 | 76 | 1016.0 |
| 20260903111242 | 65 | 165 | 0.0 | 0.0 | 0.00 | 0.00 | 0.00 | 76 | 1016.0 |
| 20260903110744 | 65 | 165 | 0.0 | 0.0 | 0.00 | 0.00 | 0.00 | 76 | 1016.0 |
| 20260903110241 | 65 | 165 | 0.0 | 0.0 | 0.00 | 0.00 | 0.00 | 76 | 1015.9 |
| 20260903105743 | 65 | 165 | 0.0 | 0.0 | 0.00 | 0.00 | 0.00 | 75 | 1015.9 |
| 20260903105241 | 65 | 165 | 0.0 | 0.0 | 0.00 | 0.00 | 0.00 | 75 | 1015.9 |
| 20260903104742 | 65 | 165 | 0.0 | 0.0 | 0.00 | 0.00 | 0.00 | 75 | 1015.9 |
| 20260903104241 | 65 | 165 | 0.0 | 0.0 | 0.00 | 0.00 | 0.00 | 75 | 1015.9 |
| 20260903104006 | 65 | 165 | 0.0 | 0.0 | 0.00 | 0.00 | 0.00 | 75 | 1015.9 |
| 20260903103240 | 65 | 165 | 0.0 | 0.0 | 0.00 | 0.00 | 0.00 | 74 | 1015.9 |
| 20260903102741 | 65 | 165 | 0.0 | 0.0 | 0.00 | 0.00 | 0.00 | 74 | 1015.9 |
| 20260903102241 | 65 | 165 | 0.0 | 0.0 | 0.00 | 0.00 | 0.00 | 74 | 1016.0 |
| 20260903101742 | 65 | 165 | 0.0 | 0.0 | 0.00 | 0.00 | 0.00 | 74 | 1016.1 |
| 20260903101505 | 65 | 165 | 0.0 | 0.0 | 0.00 | 0.00 | 0.00 | 73 | 1016.1 |
| 20260903100742 | 66 | 165 | 0.0 | 0.0 | 0.00 | 0.00 | 0.00 | 73 | 1016.1 |
| 20260903100242 | 66 | 165 | 0.0 | 0.0 | 0.00 | 0.00 | 0.00 | 73 | 1016.2 |
| 20260903095738 | 66 | 165 | 0.0 | 0.0 | 0.00 | 0.00 | 0.00 | 73 | 1016.2 |
| 20260903095239 | 66 | 165 | 0.0 | 0.0 | 0.00 | 0.00 | 0.00 | 72 | 1016.2 |
| 20260903094741 | 66 | 165 | 0.0 | 0.0 | 0.00 | 0.00 | 0.00 | 73 | 1016.2 |
| 20260903094239 | 66 | 165 | 0.0 | 0.0 | 0.00 | 0.00 | 0.00 | 73 | 1016.3 |
| 20260903093741 | 66 | 165 | 0.0 | 0.0 | 0.00 | 0.00 | 0.00 | 73 | 1016.3 |
| 20260903093239 | 66 | 165 | 0.0 | 0.0 | 0.00 | 0.00 | 0.00 | 73 | 1016.3 |
| 20260903092740 | 66 | 165 | 0.0 | 0.0 | 0.00 | 0.00 | 0.00 | 73 | 1016.3 |
| 20260903092239 | 66 | 165 | 0.0 | 0.0 | 0.00 | 0.00 | 0.00 | 73 | 1016.5 |
| 20260903091741 | 66 | 165 | 0.0 | 4.0 | 0.00 | 0.00 | 0.00 | 73 | 1016.5 |
| 20260903091239 | 66 | 165 | 1.0 | 4.0 | 0.00 | 0.00 | 0.00 | 73 | 1016.6 |
| 20260903090739 | 66 | 164 | 2.0 | 4.0 | 0.00 | 0.00 | 0.00 | 72 | 1016.6 |
| 20260903090239 | 66 | 164 | 2.0 | 4.0 | 0.00 | 0.00 | 0.00 | 72 | 1016.6 |
| 20260903085740 | 66 | 106 | 2.0 | 3.0 | 0.00 | 0.00 | 0.00 | 71 | 1016.7 |
| 20260903085239 | 67 | 104 | 2.0 | 3.0 | 0.00 | 0.00 | 0.00 | 71 | 1016.6 |
| 20260903084739 | 67 | 103 | 2.0 | 3.0 | 0.00 | 0.00 | 0.00 | 71 | 1016.7 |
| 20260903084500 | 67 | 103 | 2.0 | 3.0 | 0.00 | 0.00 | 0.00 | 71 | 1016.7 |
| 20260903083738 | 67 | 42 | 1.0 | 3.0 | 0.00 | 0.00 | 0.00 | 71 | 1016.7 |
| 20260903083237 | 67 | 42 | 1.0 | 2.0 | 0.00 | 0.00 | 0.00 | 71 | 1016.8 |
| 20260903082737 | 67 | 42 | 1.0 | 4.0 | 0.00 | 0.00 | 0.00 | 70 | 1016.8 |
| 20260903082237 | 67 | 42 | 2.0 | 4.0 | 0.00 | 0.00 | 0.00 | 70 | 1016.8 |
| 20260903081737 | 68 | 37 | 0.0 | 1.0 | 0.00 | 0.00 | 0.00 | 70 | 1016.7 |
| 20260903081237 | 68 | 37 | 0.0 | 1.0 | 0.00 | 0.00 | 0.00 | 69 | 1016.7 |
| 20260903080737 | 68 | 37 | 0.0 | 2.0 | 0.00 | 0.00 | 0.00 | 69 | 1016.7 |
| 20260903080238 | 68 | 37 | 1.0 | 2.0 | 0.00 | 0.00 | 0.00 | 69 | 1016.7 |
| 20260903075958 | 68 | 37 | 0.0 | 2.0 | 0.00 | 0.00 | 0.00 | 68 | 1016.7 |
| 20260903075237 | 68 | 37 | 0.0 | 3.0 | 0.00 | 0.00 | 0.00 | 68 | 1016.7 |
| 20260903074737 | 69 | 37 | 2.0 | 3.0 | 0.00 | 0.00 | 0.00 | 67 | 1016.8 |
| 20260903074723 | 69 | 35 | 1.0 | 3.0 | 0.00 | 0.00 | 0.00 | 66 | 1016.8 |
| 20260903074241 | 69 | 35 | 1.0 | 3.0 | 0.00 | 0.00 | 0.00 | 66 | 1016.8 |
| 20260903073737 | 69 | 35 | 0.0 | 1.0 | 0.00 | 0.00 | 0.00 | 65 | 1016.7 |
| 20260903073239 | 69 | 35 | 0.0 | 2.0 | 0.00 | 0.00 | 0.00 | 64 | 1016.7 |
| 20260903072738 | 69 | 35 | 0.0 | 2.0 | 0.00 | 0.00 | 0.00 | 63 | 1016.7 |
| 20260903072238 | 70 | 35 | 0.0 | 1.0 | 0.00 | 0.00 | 0.00 | 63 | 1016.6 |
| 20260903071738 | 70 | 35 | 0.0 | 2.0 | 0.00 | 0.00 | 0.00 | 63 | 1016.7 |
| 20260903071238 | 70 | 35 | 1.0 | 2.0 | 0.00 | 0.00 | 0.00 | 62 | 1016.6 |
| 20260903070737 | 70 | 35 | 0.0 | 2.0 | 0.00 | 0.00 | 0.00 | 62 | 1016.5 |
| 20260903070239 | 70 | 35 | 0.0 | 2.0 | 0.00 | 0.00 | 0.00 | 62 | 1016.6 |
| 20260903065736 | 70 | 35 | 0.0 | 2.0 | 0.00 | 0.00 | 0.00 | 62 | 1016.6 |
| 20260903065236 | 70 | 35 | 1.0 | 2.0 | 0.00 | 0.00 | 0.00 | 62 | 1016.6 |
| 20260903064735 | 71 | 35 | 0.0 | 4.0 | 0.00 | 0.00 | 0.00 | 61 | 1016.6 |
| 20260903064457 | 71 | 35 | 2.0 | 4.0 | 0.00 | 0.00 | 0.00 | 60 | 1016.6 |
| 20260903063735 | 71 | 35 | 1.0 | 4.0 | 0.00 | 0.00 | 0.00 | 59 | 1016.6 |
| 20260903063452 | 71 | 35 | 0.0 | 2.0 | 0.00 | 0.00 | 0.00 | 58 | 1016.6 |
| 20260903062735 | 71 | 35 | 1.0 | 2.0 | 0.00 | 0.00 | 0.00 | 57 | 1016.6 |
| 20260903062235 | 71 | 35 | 1.0 | 3.0 | 0.00 | 0.00 | 0.00 | 57 | 1016.6 |
| 20260903062003 | 71 | 35 | 2.0 | 3.0 | 0.00 | 0.00 | 0.00 | 57 | 1016.6 |
| 20260903061234 | 71 | 35 | 1.0 | 3.0 | 0.00 | 0.00 | 0.00 | 56 | 1016.7 |
| 20260903060735 | 72 | 35 | 1.0 | 4.0 | 0.00 | 0.00 | 0.00 | 56 | 1016.7 |
| 20260903060235 | 72 | 35 | 1.0 | 5.0 | 0.00 | 0.00 | 0.00 | 56 | 1016.7 |
| 20260903055736 | 72 | 34 | 4.0 | 5.0 | 0.00 | 0.00 | 0.00 | 56 | 1016.7 |
| 20260903055235 | 72 | 31 | 1.0 | 5.0 | 0.00 | 0.00 | 0.00 | 56 | 1016.7 |
| 20260903054736 | 72 | 353 | 2.0 | 5.0 | 0.00 | 0.00 | 0.00 | 55 | 1016.7 |
| 20260903054236 | 72 | 357 | 2.0 | 6.0 | 0.00 | 0.00 | 0.00 | 55 | 1016.7 |
| 20260903053739 | 72 | 14 | 1.0 | 6.0 | 0.00 | 0.00 | 0.00 | 55 | 1016.7 |
| 20260903053452 | 72 | 312 | 3.0 | 5.0 | 0.00 | 0.00 | 0.00 | 55 | 1016.6 |
| 20260903052735 | 72 | 35 | 2.0 | 10.0 | 0.00 | 0.00 | 0.00 | 55 | 1016.6 |
| 20260903052235 | 72 | 251 | 3.0 | 11.0 | 0.00 | 0.00 | 0.00 | 55 | 1016.5 |
| 20260903051736 | 73 | 309 | 4.0 | 11.0 | 0.00 | 0.00 | 0.00 | 56 | 1016.6 |
| 20260903051235 | 73 | 329 | 4.0 | 18.0 | 0.00 | 0.00 | 0.00 | 55 | 1016.5 |
| 20260903050958 | 73 | 312 | 7.0 | 18.0 | 0.00 | 0.00 | 0.00 | 55 | 1016.6 |
| 20260903050754 | 73 | 312 | 7.0 | 18.0 | 0.00 | 0.00 | 0.00 | 55 | 1016.6 |
| 20260903050234 | 73 | 274 | 6.0 | 17.0 | 0.00 | 0.00 | 0.00 | 55 | 1016.6 |
| 20260903045735 | 73 | 302 | 9.0 | 19.0 | 0.00 | 0.00 | 0.00 | 55 | 1016.7 |
| 20260903045234 | 73 | 309 | 6.0 | 19.0 | 0.00 | 0.00 | 0.00 | 55 | 1016.6 |
| 20260903044735 | 73 | 331 | 7.0 | 18.0 | 0.00 | 0.00 | 0.00 | 55 | 1016.7 |
| 20260903044234 | 73 | 298 | 9.0 | 18.0 | 0.00 | 0.00 | 0.00 | 55 | 1016.7 |
| 20260903043736 | 73 | 329 | 7.0 | 13.0 | 0.00 | 0.00 | 0.00 | 55 | 1016.7 |
| 20260903043232 | 73 | 303 | 9.0 | 14.0 | 0.00 | 0.00 | 0.00 | 55 | 1016.7 |
| 20260903043010 | 73 | 290 | 8.0 | 14.0 | 0.00 | 0.00 | 0.00 | 55 | 1016.7 |
| 20260903042233 | 73 | 283 | 7.0 | 14.0 | 0.00 | 0.00 | 0.00 | 55 | 1016.7 |
| 20260903041952 | 73 | 283 | 8.0 | 19.0 | 0.00 | 0.00 | 0.00 | 54 | 1016.7 |
| 20260903041233 | 73 | 279 | 11.0 | 19.0 | 0.00 | 0.00 | 0.00 | 54 | 1016.7 |
| 20260903040734 | 73 | 290 | 8.0 | 13.0 | 0.00 | 0.00 | 0.00 | 53 | 1016.7 |
| 20260903040306 | 73 | 309 | 9.0 | 12.0 | 0.00 | 0.00 | 0.00 | 54 | 1016.6 |
| 20260903035734 | 73 | 254 | 2.0 | 5.0 | 0.00 | 0.00 | 0.00 | 53 | 1016.6 |
| 20260903035231 | 73 | 89 | 4.0 | 5.0 | 0.00 | 0.00 | 0.00 | 53 | 1016.4 |
| 20260903034732 | 73 | 114 | 2.0 | 9.0 | 0.00 | 0.00 | 0.00 | 52 | 1016.4 |
| 20260903034231 | 73 | 0 | 1.0 | 9.0 | 0.00 | 0.00 | 0.00 | 52 | 1016.2 |
| 20260903033939 | 73 | 316 | 7.0 | 13.0 | 0.00 | 0.00 | 0.00 | 51 | 1016.2 |
| 20260903033926 | 73 | 309 | 3.0 | 13.0 | 0.00 | 0.00 | 0.00 | 51 | 1016.2 |
| 20260903033517 | 73 | 316 | 7.0 | 13.0 | 0.00 | 0.00 | 0.00 | 51 | 1016.2 |
| 20260903032949 | 74 | 102 | 1.0 | 5.0 | 0.00 | 0.00 | 0.00 | 50 | 1016.1 |
| 20260903032752 | 74 | 102 | 1.0 | 5.0 | 0.00 | 0.00 | 0.00 | 50 | 1016.1 |
| 20260903032455 | 74 | 99 | 3.0 | 7.0 | 0.00 | 0.00 | 0.00 | 49 | 1016.1 |
| 20260903031731 | 74 | 100 | 3.0 | 7.0 | 0.00 | 0.00 | 0.00 | 49 | 1016.0 |
| 20260903031452 | 74 | 111 | 1.0 | 11.0 | 0.00 | 0.00 | 0.00 | 48 | 1016.0 |
| 20260903030716 | 75 | 127 | 3.0 | 14.0 | 0.00 | 0.00 | 0.00 | 47 | 1015.9 |
| 20260903030214 | 75 | 258 | 6.0 | 14.0 | 0.00 | 0.00 | 0.00 | 46 | 1015.9 |
| 20260903025714 | 75 | 288 | 6.0 | 15.0 | 0.00 | 0.00 | 0.00 | 45 | 1015.8 |
| 20260903025433 | 75 | 275 | 9.0 | 15.0 | 0.00 | 0.00 | 0.00 | 44 | 1015.8 |
| 20260903025321 | 75 | 275 | 9.0 | 15.0 | 0.00 | 0.00 | 0.00 | 44 | 1015.8 |
| 20260903024712 | 75 | 302 | 5.0 | 13.0 | 0.00 | 0.00 | 0.00 | 44 | 1015.8 |
| 20260903024433 | 75 | 292 | 8.0 | 17.0 | 0.00 | 0.00 | 0.00 | 44 | 1015.8 |
| 20260903024311 | 75 | 292 | 8.0 | 17.0 | 0.00 | 0.00 | 0.00 | 44 | 1015.8 |
| 20260903023703 | 76 | 279 | 8.0 | 18.0 | 0.00 | 0.00 | 0.00 | 44 | 1015.8 |
| 20260903023202 | 76 | 306 | 8.0 | 21.0 | 0.00 | 0.00 | 0.00 | 43 | 1015.7 |
| 20260903022924 | 76 | 302 | 16.0 | 21.0 | 0.00 | 0.00 | 0.00 | 44 | 1015.7 |
| 20260903022706 | 76 | 302 | 16.0 | 21.0 | 0.00 | 0.00 | 0.00 | 44 | 1015.7 |
| 20260903022202 | 76 | 276 | 10.0 | 17.0 | 0.00 | 0.00 | 0.00 | 43 | 1015.8 |
| 20260903021703 | 77 | 285 | 9.0 | 15.0 | 0.00 | 0.00 | 0.00 | 42 | 1015.8 |
| 20260903021643 | 78 | 282 | 5.0 | 9.0 | 0.00 | 0.00 | 0.00 | 40 | 1015.8 |
| 20260903021638 | 77 | 337 | 4.0 | 10.0 | 0.00 | 0.00 | 0.00 | 40 | 1015.8 |
| 20260903021208 | 78 | 282 | 5.0 | 9.0 | 0.00 | 0.00 | 0.00 | 40 | 1015.8 |
| 20260903020205 | 78 | 230 | 1.0 | 9.0 | 0.00 | 0.00 | 0.00 | 41 | 1015.9 |
| 20260903015703 | 78 | 230 | 6.0 | 9.0 | 0.00 | 0.00 | 0.00 | 41 | 1015.9 |
| 20260903015204 | 78 | 320 | 2.0 | 6.0 | 0.00 | 0.00 | 0.00 | 42 | 1015.9 |
| 20260903014924 | 78 | 219 | 2.0 | 6.0 | 0.00 | 0.00 | 0.00 | 42 | 1015.9 |
| 20260903014204 | 78 | 295 | 3.0 | 10.0 | 0.00 | 0.00 | 0.00 | 43 | 1016.0 |
| 20260903013703 | 78 | 264 | 5.0 | 12.0 | 0.00 | 0.00 | 0.00 | 43 | 1016.0 |
| 20260903013204 | 78 | 240 | 8.0 | 19.0 | 0.00 | 0.00 | 0.00 | 43 | 1016.1 |
| 20260903012923 | 77 | 247 | 9.0 | 19.0 | 0.00 | 0.00 | 0.00 | 45 | 1016.0 |
| 20260903012811 | 77 | 247 | 9.0 | 19.0 | 0.00 | 0.00 | 0.00 | 45 | 1016.0 |
| 20260903012308 | 77 | 240 | 10.0 | 17.0 | 0.00 | 0.00 | 0.00 | 46 | 1016.0 |
| 20260903011702 | 77 | 248 | 11.0 | 20.0 | 0.00 | 0.00 | 0.00 | 46 | 1016.2 |
| 20260903011204 | 77 | 252 | 13.0 | 20.0 | 0.00 | 0.00 | 0.00 | 47 | 1016.4 |
| 20260903011147 | 77 | 243 | 13.0 | 20.0 | 0.00 | 0.00 | 0.00 | 49 | 1016.3 |
| 20260903010203 | 78 | 230 | 13.0 | 23.0 | 0.00 | 0.00 | 0.00 | 48 | 1016.4 |
| 20260903005702 | 78 | 259 | 16.0 | 23.0 | 0.00 | 0.00 | 0.00 | 48 | 1016.3 |
| 20260903005412 | 78 | 251 | 14.0 | 21.0 | 0.00 | 0.00 | 0.00 | 48 | 1016.4 |
| 20260903005359 | 78 | 248 | 13.0 | 21.0 | 0.00 | 0.00 | 0.00 | 48 | 1016.3 |
| 20260903004424 | 78 | 272 | 17.0 | 22.0 | 0.00 | 0.00 | 0.00 | 46 | 1016.3 |
| 20260903004206 | 78 | 272 | 17.0 | 22.0 | 0.00 | 0.00 | 0.00 | 46 | 1016.3 |
| 20260903003702 | 78 | 259 | 15.0 | 22.0 | 0.00 | 0.00 | 0.00 | 46 | 1016.3 |
| 20260903003429 | 79 | 217 | 16.0 | 24.0 | 0.00 | 0.00 | 0.00 | 47 | 1016.2 |
| 20260903003219 | 79 | 217 | 16.0 | 24.0 | 0.00 | 0.00 | 0.00 | 47 | 1016.2 |
| 20260903002702 | 79 | 240 | 17.0 | 24.0 | 0.00 | 0.00 | 0.00 | 47 | 1016.2 |
| 20260903002203 | 80 | 238 | 15.0 | 21.0 | 0.00 | 0.00 | 0.00 | 46 | 1016.2 |
| 20260903001703 | 80 | 279 | 15.0 | 27.0 | 0.00 | 0.00 | 0.00 | 46 | 1016.2 |
| 20260903001636 | 80 | 248 | 19.0 | 27.0 | 0.00 | 0.00 | 0.00 | 45 | 1016.3 |
| 20260903000643 | 80 | 223 | 17.0 | 24.0 | 0.00 | 0.00 | 0.00 | 45 | 1016.4 |
| 20260903000142 | 80 | 245 | 15.0 | 24.0 | 0.00 | 0.00 | 0.00 | 45 | 1016.3 |
| 20260902235640 | 81 | 251 | 15.0 | 22.0 | 0.00 | 0.00 | 0.00 | 44 | 1016.6 |
| 20260902235140 | 81 | 250 | 9.0 | 20.0 | 0.00 | 0.00 | 0.00 | 43 | 1016.6 |
| 20260902234858 | 82 | 276 | 13.0 | 20.0 | 0.00 | 0.00 | 0.00 | 44 | 1016.6 |
| 20260902234132 | 82 | 238 | 9.0 | 20.0 | 0.00 | 0.00 | 0.00 | 43 | 1016.7 |
| 20260902233631 | 82 | 234 | 12.0 | 26.0 | 0.00 | 0.00 | 0.00 | 42 | 1016.7 |
| 20260902233131 | 82 | 278 | 11.0 | 26.0 | 0.00 | 0.00 | 0.00 | 42 | 1016.8 |
| 20260902232858 | 82 | 259 | 11.0 | 21.0 | 0.00 | 0.00 | 0.00 | 42 | 1016.9 |
| 20260902232131 | 82 | 231 | 11.0 | 22.0 | 0.00 | 0.00 | 0.00 | 43 | 1017.0 |
| 20260902231630 | 82 | 269 | 13.0 | 22.0 | 0.00 | 0.00 | 0.00 | 41 | 1016.9 |